Vertical_Velocity
2 -2 4 1 -8 2 -6 -2 7 -0 4 -0 -2 -3 -1 0 2 1 -1 -1 -1 1 -0 -1 0 -2 -2 0 -1 -1 -3 -5
12 -2 1 1 -6 -3 3 -7 3 4 -2 -2 -3 -3 1 0 -1 0 1 1 -3 -2 1 -1 3 3 1 1 -1 -1 2 -4
8 1 -2 -3 -1 1 -3 1 -2 2 1 -1 -1 -1 -1 -0 0 1 -0 1 -2 -1 -4 -2 2 -3 -3 -1 -1 -0 5 -3
9 -1 4 -1 -4 -3 1 -3 -2 0 1 1 0 -1 -0 -1 1 -1 -2 -2 0 0 -2 -1 -2 2 3 1 1 2 5 10
20 11 -3 -0 -5 1 4 -1 -0 -0 6 2 -3 -0 -0 -1 -1 -0 2 3 1 1 1 -1 -2 -3 -1 -4 -7 -5 -9 -0
8 9 4 -1 2 1 4 -3 -3 4 2 3 -0 -1 -1 -0 4 -1 -1 -0 -1 -3 -3 -2 -4 -5 -4 -2 -1 1 -3 -7
1 0 12 6 -1 1 7 -2 -2 0 1 2 -1 -2 -3 -4 -3 -1 2 -1 0 2 1 2 0 1 2 -2 -4 -1 0 -3
1 -1 1 4 -2 0 3 0 -2 -1 0 1 3 2 1 1 0 -0 -0 -1 -4 -2 7 4 -1 -1 -2 -4 -1 -1 -2 -1
3 -5 3 2 -0 -3 3 6 3 -2 -0 -3 -3 -1 3 2 0 1 -2 1 -1 -3 -6 2 8 2 -2 -4 -2 -0 -2 -1
3 -1 1 7 2 -1 1 -1 0 1 2 2 2 -2 -3 -3 -1 -0 3 1 1 0 -3 -6 -8 -5 2 -1 -2 -2 -0 2
-2 -1 -1 2 5 7 -1 1 1 3 3 3 3 3 2 3 1 -1 -0 2 -0 -6 -0 -2 -4 -2 -2 -4 -1 1 1 3
-0 -2 3 -1 5 6 -1 -1 -1 -1 2 2 2 2 2 1 4 -0 -2 -0 3 2 7 2 2 4 4 3 -1 -2 -3 -0
-2 -0 5 3 2 -1 4 1 -1 -0 -1 -1 -1 -0 -1 -0 0 -6 3 3 4 -1 4 1 2 -3 -0 5 9 7 5 7
-0 -1 4 3 -4 -0 1 -1 -0 -3 1 -3 1 0 1 1 3 7 2 -3 -4 -4 -4 1 1 3 3 -0 1 1 -1 1
0 2 2 2 0 -0 -5 -1 2 2 4 2 -1 -1 -1 -3 -0 -2 -4 0 -0 0 -1 -1 -2 0 -0 2 -1 -3 -4 -7
0 0 4 1 -0 5 -4 3 -2 2 5 -0 -2 2 -1 -2 1 -1 -3 -0 -1 -4 -1 0 -0 -4 -3 1 -2 -4 -1 1
-0 -3 5 3 -1 1 -1 3 -1 -1 0 -2 -2 0 -1 1 -0 -4 -3 -4 -1 -2 -3 -4 -3 1 -1 -5 -2 2 -1 -0
-3 0 3 -3 2 1 2 5 0 -1 1 -0 -2 -2 -0 -0 -4 -5 1 -5 -2 -4 -3 -6 -5 -4 -3 -3 -2 -1 -1 -2
3 -2 -5 -5 -3 -2 -4 9 -3 1 -0 -1 1 0 2 -1 -3 -4 -3 -3 -1 2 -0 -6 -7 0 -1 -2 -5 0 1 0
Height
5803 5804 5805 5806 5804 5802 5807 5811 5811 5810 5811 5811 5811 5811 5812 5812 5812 5812 5812 5811 5811 5812 5811 5811 5810 5809 5808 5807 5807 5806 5805 5804
5800 5798 5800 5801 5800 5797 5799 5804 5804 5802 5802 5804 5804 5804 5804 5805 5807 5807 5806 5806 5805 5804 5804 5802 5801 5800 5799 5797 5797 5796 5795 5793
5794 5793 5794 5794 5794 5794 5793 5797 5798 5798 5796 5796 5797 5796 5797 5797 5798 5799 5799 5798 5797 5796 5795 5794 5792 5791 5790 5788 5787 5785 5785 5783
5787 5787 5788 5790 5789 5789 5792 5791 5789 5791 5790 5791 5790 5790 5789 5790 5790 5790 5789 5788 5787 5786 5785 5785 5782 5779 5777 5776 5774 5773 5772 5772
5778 5782 5780 5782 5783 5783 5783 5782 5781 5783 5783 5783 5783 5782 5782 5782 5782 5781 5780 5779 5778 5777 5775 5773 5772 5770 5768 5766 5764 5761 5759 5757
5767 5772 5774 5774 5774 5774 5775 5773 5773 5773 5773 5774 5774 5774 5773 5772 5772 5771 5770 5769 5767 5764 5762 5759 5758 5756 5755 5753 5750 5748 5746 5744
5756 5761 5765 5765 5764 5764 5764 5764 5764 5764 5764 5764 5764 5764 5763 5762 5761 5760 5759 5757 5755 5753 5752 5750 5747 5745 5742 5739 5736 5734 5731 5730
5745 5751 5754 5755 5754 5753 5755 5754 5754 5754 5753 5753 5753 5753 5752 5751 5750 5749 5747 5745 5743 5741 5739 5737 5734 5730 5727 5724 5722 5721 5718 5716
5736 5738 5742 5745 5745 5743 5744 5744 5744 5744 5743 5743 5742 5741 5740 5739 5737 5735 5734 5732 5730 5728 5726 5722 5718 5716 5714 5712 5709 5704 5700 5696
5725 5726 5730 5732 5733 5732 5732 5731 5732 5733 5733 5732 5731 5730 5728 5726 5725 5723 5721 5719 5716 5713 5709 5707 5705 5703 5699 5695 5691 5687 5682 5677
5713 5716 5718 5720 5721 5722 5720 5721 5722 5722 5721 5720 5719 5716 5714 5712 5710 5708 5706 5703 5701 5698 5695 5693 5690 5686 5682 5678 5673 5668 5664 5659
5703 5705 5707 5709 5711 5712 5711 5711 5711 5710 5709 5707 5705 5702 5700 5698 5696 5694 5691 5689 5687 5684 5682 5678 5674 5669 5665 5660 5654 5649 5643 5638
5692 5695 5697 5700 5700 5701 5700 5701 5700 5698 5696 5694 5691 5689 5686 5684 5682 5680 5679 5676 5673 5670 5666 5662 5657 5650 5644 5638 5632 5626 5619 5614
5682 5683 5685 5689 5689 5687 5688 5687 5686 5684 5682 5679 5678 5676 5674 5673 5669 5667 5663 5660 5657 5652 5648 5642 5635 5628 5620 5613 5605 5597 5590 5582
5670 5671 5673 5674 5672 5673 5673 5671 5671 5669 5668 5667 5664 5661 5660 5657 5653 5650 5647 5643 5638 5633 5626 5620 5613 5606 5597 5587 5578 5569 5561 5554
5657 5659 5660 5660 5661 5660 5659 5658 5656 5655 5653 5651 5648 5646 5642 5639 5636 5633 5630 5625 5619 5613 5606 5599 5590 5581 5572 5562 5553 5545 5538 5532
5646 5648 5648 5649 5649 5648 5646 5645 5643 5642 5639 5637 5635 5631 5628 5624 5621 5617 5613 5607 5601 5593 5584 5577 5568 5557 5547 5540 5532 5527 5524 5521
5634 5636 5636 5636 5635 5634 5634 5633 5630 5627 5626 5623 5619 5616 5612 5608 5605 5600 5595 5587 5580 5571 5561 5552 5544 5535 5527 5522 5519 5518 5516 5513
5622 5624 5625 5625 5624 5624 5622 5621 5616 5614 5611 5608 5605 5601 5598 5593 5588 5582 5576 5568 5561 5550 5539 5529 5522 5518 5515 5512 5511 5510 5508 5505